MUOS-1

Last updated on Wed Sep 09 2026 00:02:59 GMT+0000 (Coordinated Universal Time)

1 38093U 12009A 26251.49656884 -.00000145 00000+0 00000+0 0 9990 2 38093 5.6436 46.9991 0053025 4.1382 15.2430 1.00271911 53285
UTC large
Height (km)
Speed (km/s)
/
Latitude / Longitude
Inclination (degrees)
Orbital Period (minutes)
Azimuth
Elevation
Range (km)
Doppler Factor

Next 0 passes for location: London (51.5072 / 0.1276)

No passes found over London.
MUOS-1